When you browse on this site, cookies collect data to enhance your experience and personalize the content and advertising you see.
Visit our Privacy Policy to learn more. By continuing to use the site, you agree to this use of cookies and data.
  • In Hungary
  • List of Countries
  • For 7 days
  • Water Temperature
  • Weather Map
  • News
  • Weather Widgets
  • user-avatar
    Login

    Hourly Weather Navua

    Today, 14 December, Saturday

    Time Temperature Precipitation Wind Pressure Humidity
    00:00 +26°C° 0 mm 3 mps 757 mmHg 93%
    01:00 +26°C° 0.1 mm 3 mps 757 mmHg 93%
    02:00 +26°C° 0.1 mm 3 mps 756 mmHg 93%
    03:00 +26°C° 0.1 mm 3 mps 756 mmHg 93%
    04:00 +26°C° 0.1 mm 3 mps 756 mmHg 93%
    05:00 +26°C° 0.1 mm 3 mps 756 mmHg 93%
    06:00 +26°C° 0 mm 3 mps 757 mmHg 92%
    07:00 +27°C° 0.1 mm 3 mps 757 mmHg 91%
    08:00 +28°C° 0.1 mm 4 mps 757 mmHg 89%
    09:00 +28°C° 0.1 mm 4 mps 757 mmHg 87%
    10:00 +29°C° 0.4 mm 4 mps 757 mmHg 87%
    11:00 +29°C° 0.4 mm 5 mps 757 mmHg 87%
    12:00 +29°C° 0 mm 5 mps 756 mmHg 87%
    13:00 +29°C° 0.7 mm 5 mps 756 mmHg 87%
    14:00 +29°C° 0.7 mm 5 mps 756 mmHg 88%
    15:00 +29°C° 0.7 mm 5 mps 755 mmHg 89%
    16:00 +28°C° 0.6 mm 5 mps 755 mmHg 90%
    17:00 +28°C° 0.6 mm 5 mps 756 mmHg 91%
    18:00 +27°C° 0 mm 4 mps 756 mmHg 91%
    19:00 +27°C° 0.3 mm 4 mps 756 mmHg 92%
    20:00 +27°C° 0.3 mm 4 mps 756 mmHg 92%
    21:00 +26°C° 0.3 mm 4 mps 757 mmHg 93%
    22:00 +26°C° 0.4 mm 4 mps 757 mmHg 93%
    23:00 +26°C° 0.4 mm 4 mps 757 mmHg 93%

    Tomorrow, 15 December, Sunday

    Time Temperature Precipitation Wind Pressure Humidity
    00:00 +26°C° 0 mm 4 mps 756 mmHg 94%
    01:00 +26°C° 0.3 mm 4 mps 756 mmHg 94%
    02:00 +26°C° 0.3 mm 4 mps 755 mmHg 94%
    03:00 +26°C° 0.3 mm 4 mps 755 mmHg 94%
    04:00 +26°C° 0.3 mm 4 mps 755 mmHg 94%
    05:00 +26°C° 0.3 mm 4 mps 755 mmHg 94%
    06:00 +26°C° 0.3 mm 4 mps 755 mmHg 94%
    07:00 +27°C° 0.3 mm 4 mps 756 mmHg 90%
    08:00 +28°C° 0.3 mm 4 mps 756 mmHg 87%
    09:00 +29°C° 0.3 mm 4 mps 756 mmHg 83%
    10:00 +30°C° 0.2 mm 4 mps 756 mmHg 82%
    11:00 +30°C° 0.2 mm 5 mps 756 mmHg 80%
    12:00 +32°C° 0.2 mm 5 mps 755 mmHg 78%
    13:00 +30°C° 1.3 mm 4 mps 755 mmHg 82%
    14:00 +29°C° 1.3 mm 4 mps 755 mmHg 87%
    15:00 +28°C° 1.3 mm 3 mps 755 mmHg 91%
    16:00 +28°C° 0.9 mm 3 mps 755 mmHg 92%
    17:00 +27°C° 0.9 mm 3 mps 755 mmHg 92%
    18:00 +27°C° 0.9 mm 3 mps 755 mmHg 92%
    19:00 +27°C° 0.6 mm 3 mps 755 mmHg 92%
    20:00 +27°C° 0.6 mm 3 mps 756 mmHg 92%
    21:00 +27°C° 0.6 mm 3 mps 756 mmHg 92%
    22:00 +27°C° 0.3 mm 3 mps 756 mmHg 92%
    23:00 +27°C° 0.3 mm 3 mps 756 mmHg 92%

    Day after tomorrow, 16 December, Monday

    Time Temperature Precipitation Wind Pressure Humidity
    00:00 +26°C° 0.3 mm 3 mps 756 mmHg 92%
    01:00 +26°C° 0.4 mm 3 mps 755 mmHg 92%
    02:00 +26°C° 0.4 mm 3 mps 755 mmHg 92%
    03:00 +26°C° 0.4 mm 3 mps 754 mmHg 92%
    04:00 +26°C° 0.2 mm 3 mps 754 mmHg 92%
    05:00 +26°C° 0.2 mm 3 mps 754 mmHg 92%
    06:00 +26°C° 0.2 mm 3 mps 754 mmHg 92%
    07:00 +27°C° 0.2 mm 3 mps 755 mmHg 87%
    08:00 +29°C° 0.2 mm 3 mps 755 mmHg 83%
    09:00 +30°C° 0.2 mm 3 mps 755 mmHg 79%
    10:00 +30°C° 0.3 mm 4 mps 755 mmHg 78%
    11:00 +32°C° 0.3 mm 4 mps 755 mmHg 77%
    12:00 +32°C° 0.3 mm 5 mps 755 mmHg 77%
    13:00 +32°C° 0.3 mm 5 mps 754 mmHg 78%
    14:00 +30°C° 0.3 mm 5 mps 754 mmHg 80%
    15:00 +30°C° 0.3 mm 5 mps 754 mmHg 81%
    16:00 +29°C° 0.3 mm 5 mps 754 mmHg 84%
    17:00 +29°C° 0.3 mm 5 mps 754 mmHg 87%
    18:00 +28°C° 0.3 mm 5 mps 754 mmHg 90%
    19:00 +28°C° 0.5 mm 5 mps 754 mmHg 91%
    20:00 +27°C° 0.5 mm 6 mps 755 mmHg 91%
    21:00 +27°C° 0.5 mm 6 mps 755 mmHg 92%
    22:00 +27°C° 0.8 mm 6 mps 755 mmHg 92%
    23:00 +27°C° 0.8 mm 6 mps 755 mmHg 93%

    17 December, Tuesday

    Time Temperature Precipitation Wind Pressure Humidity
    00:00 +27°C° 0.8 mm 6 mps 755 mmHg 93%
    01:00 +27°C° 0.5 mm 6 mps 754 mmHg 93%
    02:00 +27°C° 0.5 mm 6 mps 754 mmHg 93%
    03:00 +27°C° 0.5 mm 5 mps 754 mmHg 94%
    04:00 +27°C° 0.4 mm 5 mps 754 mmHg 94%
    05:00 +27°C° 0.4 mm 6 mps 754 mmHg 94%
    06:00 +27°C° 0.4 mm 6 mps 754 mmHg 94%
    07:00 +28°C° 0.2 mm 6 mps 754 mmHg 91%
    08:00 +28°C° 0.2 mm 6 mps 755 mmHg 89%
    09:00 +29°C° 0.2 mm 6 mps 755 mmHg 87%
    10:00 +30°C° 0.9 mm 6 mps 755 mmHg 85%
    11:00 +30°C° 0.9 mm 5 mps 755 mmHg 83%
    12:00 +32°C° 0.9 mm 5 mps 755 mmHg 81%
    13:00 +32°C° 2.6 mm 5 mps 754 mmHg 83%
    14:00 +32°C° 2.6 mm 4 mps 754 mmHg 84%
    15:00 +32°C° 2.6 mm 4 mps 754 mmHg 85%
    16:00 +30°C° 3.1 mm 4 mps 754 mmHg 87%
    17:00 +29°C° 3.1 mm 3 mps 754 mmHg 89%
    18:00 +29°C° 3.1 mm 3 mps 754 mmHg 91%
    19:00 +28°C° 1.2 mm 3 mps 755 mmHg 91%
    20:00 +28°C° 1.2 mm 3 mps 755 mmHg 91%
    21:00 +27°C° 1.2 mm 2 mps 756 mmHg 91%
    22:00 +27°C° 0 mm 2 mps 756 mmHg 91%
    23:00 +27°C° 0 mm 2 mps 756 mmHg 91%

    18 December, Wednesday

    Time Temperature Precipitation Wind Pressure Humidity
    00:00 +27°C° 0 mm 2 mps 755 mmHg 91%
    01:00 +26°C° 0 mm 2 mps 755 mmHg 91%
    02:00 +26°C° 0 mm 1 mps 755 mmHg 91%
    03:00 +26°C° 0 mm 1 mps 754 mmHg 91%
    04:00 +26°C° 0 mm 1 mps 754 mmHg 91%
    05:00 +26°C° 0 mm 1 mps 754 mmHg 91%
    06:00 +26°C° 0 mm 1 mps 755 mmHg 91%
    07:00 +28°C° 0 mm 1 mps 755 mmHg 85%
    08:00 +30°C° 0 mm 1 mps 755 mmHg 79%
    09:00 +31°C° 0 mm 1 mps 756 mmHg 72%
    10:00 +31°C° 0.1 mm 1 mps 756 mmHg 73%
    11:00 +32°C° 0.1 mm 2 mps 755 mmHg 73%
    12:00 +32°C° 0.1 mm 2 mps 755 mmHg 73%
    13:00 +31°C° 0.9 mm 2 mps 755 mmHg 77%
    14:00 +31°C° 0.9 mm 2 mps 755 mmHg 80%
    15:00 +30°C° 0.9 mm 1 mps 754 mmHg 84%
    16:00 +30°C° 0.7 mm 1 mps 755 mmHg 85%
    17:00 +29°C° 0.7 mm 1 mps 755 mmHg 87%
    18:00 +29°C° 0.7 mm 1 mps 755 mmHg 88%
    19:00 +28°C° 0 mm 1 mps 755 mmHg 89%
    20:00 +28°C° 0 mm 1 mps 755 mmHg 91%
    21:00 +27°C° 0 mm 1 mps 756 mmHg 92%
    22:00 +27°C° 0 mm 1 mps 756 mmHg 93%
    23:00 +27°C° 0 mm 1 mps 756 mmHg 93%

    19 December, Thursday

    Time Temperature Precipitation Wind Pressure Humidity
    00:00 +27°C° 0 mm 1 mps 756 mmHg 93%
    01:00 +26°C° 0 mm 1 mps 755 mmHg 93%
    02:00 +26°C° 0 mm 1 mps 755 mmHg 93%
    03:00 +26°C° 0 mm 1 mps 755 mmHg 93%
    04:00 +26°C° 0 mm 1 mps 755 mmHg 93%
    05:00 +26°C° 0 mm 1 mps 755 mmHg 93%
    06:00 +24°C° 0 mm 0 mps 755 mmHg 93%
    07:00 +28°C° 0 mm 1 mps 755 mmHg 87%
    08:00 +29°C° 0 mm 1 mps 756 mmHg 82%
    09:00 +31°C° 0 mm 1 mps 756 mmHg 76%
    10:00 +31°C° 0 mm 1 mps 756 mmHg 75%
    11:00 +32°C° 0 mm 2 mps 756 mmHg 73%
    12:00 +33°C° 0 mm 3 mps 756 mmHg 71%
    13:00 +33°C° 0.3 mm 3 mps 755 mmHg 74%
    14:00 +31°C° 0.3 mm 3 mps 755 mmHg 77%
    15:00 +31°C° 0.3 mm 3 mps 755 mmHg 81%
    16:00 +30°C° 0.2 mm 3 mps 755 mmHg 83%
    17:00 +30°C° 0.2 mm 3 mps 755 mmHg 86%
    18:00 +29°C° 0.2 mm 3 mps 755 mmHg 88%
    19:00 +29°C° 0 mm 3 mps 755 mmHg 90%
    20:00 +28°C° 0 mm 3 mps 756 mmHg 92%
    21:00 +27°C° 0 mm 3 mps 756 mmHg 93%
    22:00 +27°C° 0 mm 3 mps 756 mmHg 93%
    23:00 +27°C° 0 mm 3 mps 756 mmHg 93%
    Show more